This is the latest recevied weather packets stored in our database for station/object OE5ERN-10. If no packets are shown the sender has not sent any weather packets the latest 10 day(s).
| Time | Temp. | Humidity | Pressure | Rain* | Wind** | Luminosity | Snow |
|---|---|---|---|---|---|---|---|
| 1777699539 | 8.89° C | 80% | 1029.5 hPa | 0 mm | - | - | - |
| 1777698639 | 7.22° C | 81% | 1029.5 hPa | 0 mm | - | - | - |
| 1777697739 | 5.56° C | 83% | 1029.4 hPa | 0 mm | - | - | - |
| 1777696839 | 5.56° C | 83% | 1029.5 hPa | 0 mm | - | - | - |
| 1777695939 | 4.44° C | 83% | 1029.4 hPa | 0 mm | - | - | - |
| 1777695039 | 3.89° C | 82% | 1029.5 hPa | 0 mm | - | - | - |
| 1777694139 | 3.33° C | 82% | 1029.3 hPa | 0 mm | - | - | - |
| 1777693239 | 3.33° C | 82% | 1029.3 hPa | 0 mm | - | - | - |
| 1777692339 | 3.89° C | 81% | 1029.3 hPa | 0 mm | - | - | - |
| 1777691439 | 3.89° C | 80% | 1029.2 hPa | 0 mm | - | - | - |
| 1777690539 | 3.89° C | 80% | 1029.3 hPa | 0 mm | - | - | - |
| 1777689639 | 3.89° C | 79% | 1029.5 hPa | 0 mm | - | - | - |
| 1777688740 | 4.44° C | 79% | 1029.4 hPa | 0 mm | - | - | - |
| 1777687840 | 4.44° C | 78% | 1029.4 hPa | 0 mm | - | - | - |
| 1777686940 | 4.44° C | 77% | 1029.6 hPa | 0 mm | - | - | - |
| 1777686040 | 5° C | 77% | 1029.4 hPa | 0 mm | - | - | - |
| 1777685140 | 5° C | 76% | 1029.6 hPa | 0 mm | - | - | - |
| 1777684240 | 5° C | 75% | 1029.8 hPa | 0 mm | - | - | - |
| 1777683340 | 5.56° C | 74% | 1029.8 hPa | 0 mm | - | - | - |
| 1777682440 | 6.11° C | 72% | 1029.8 hPa | 0 mm | - | - | - |
| 1777681540 | 6.11° C | 71% | 1030 hPa | 0 mm | - | - | - |
| 1777680640 | 6.67° C | 70% | 1030 hPa | 0 mm | - | - | - |
| 1777679740 | 7.22° C | 69% | 1030.1 hPa | 0 mm | - | - | - |
| 1777678840 | 7.22° C | 68% | 1030.2 hPa | 0 mm | - | - | - |
| 1777677940 | 7.78° C | 66% | 1030.2 hPa | 0 mm | - | - | - |
* Rain latest hour (hover to see other rain measurements)
** Current wind speed in m/s (hover to see current wind gust speed)